Location: Newark
(50.4348°N, 30.5552°E)
Time: 04:50:03
(UTC+00:00)

Altair - Pass Details

Date: 28 January 2020
Orbit: 1502 x 1682 km, 47.2° (Epoch: 19 February)

Event Time Altitude Azimuth Distance (km) Brightness Sun altitude
Rises 04:33:53 0° 200° (SSW) 4,837 10.1 -10.4°
Reaches altitude 10° 04:37:31 10° 190° (S) 3,877 9.7 -9.9°
Maximum altitude 04:45:34 29° 135° (SE) 2,707 9.6 -8.7°
Drops below altitude 10° 04:53:45 10° 81° (E) 3,949 10.7 -7.4°
Sets 04:57:27 0° 71° (ENE) 4,940 11.1 -6.9°
